VIR23G EDDF-EGLL

Flight info

Callsign VIR23G
Flight time 1h 10m
Altitude 40000
Route OBOKA3D/07C OBOKA Z29 TORNU DCT ABNED L980 LOGAN
Aircraft A35K/H-SDE2E3GHIJ3J4J5LM1ORWXY/LB1D1

Departure

Time 2026-05-07 19:12
Airport Frankfurt Main Airport (EDDF)

Arrival

Time 2026-05-07 20:23
Airport London Heathrow Airport (EGLL)
Time Latitude Longitude Altitude Speed Heading
2026-05-07 18:57 50.03826 8.54580 353 ft 0 kts 160°
2026-05-07 19:05 50.03825 8.54581 363 ft 1 kts 160°
2026-05-07 19:05 50.03801 8.54594 361 ft 6 kts 162°
2026-05-07 19:05 50.03746 8.54586 354 ft 10 kts 204°
2026-05-07 19:05 50.03700 8.54488 349 ft 12 kts 247°
2026-05-07 19:06 50.03675 8.54394 349 ft 4 kts 249°
2026-05-07 19:06 50.03662 8.54344 356 ft 0 kts 240°
2026-05-07 19:07 50.03661 8.54344 358 ft 1 kts 240°
2026-05-07 19:07 50.03652 8.54323 355 ft 4 kts 228°
2026-05-07 19:08 50.03618 8.54313 357 ft 7 kts 175°
2026-05-07 19:08 50.03593 8.54321 347 ft 2 kts 165°
2026-05-07 19:08 50.03589 8.54323 354 ft 0 kts 163°
2026-05-07 19:10 50.03583 8.54326 356 ft 3 kts 163°
2026-05-07 19:10 50.03554 8.54340 353 ft 6 kts 163°
2026-05-07 19:11 50.03518 8.54363 350 ft 6 kts 151°
2026-05-07 19:11 50.03496 8.54429 359 ft 7 kts 93°
2026-05-07 19:11 50.03502 8.54466 352 ft 0 kts 70°
2026-05-07 19:11 50.03502 8.54467 357 ft 1 kts 70°
2026-05-07 19:12 50.03552 8.54676 358 ft 58 kts 69°
2026-05-07 19:12 50.03785 8.55659 362 ft 132 kts 70°
2026-05-07 19:12 50.04179 8.57272 593 ft 175 kts 69°
2026-05-07 19:12 50.04622 8.59055 1440 ft 174 kts 69°
2026-05-07 19:13 50.05016 8.60782 2488 ft 168 kts 71°
2026-05-07 19:13 50.05417 8.62615 2926 ft 193 kts 71°
2026-05-07 19:13 50.05877 8.64720 3326 ft 215 kts 71°
2026-05-07 19:13 50.06372 8.66970 4020 ft 223 kts 71°
2026-05-07 19:14 50.06913 8.69263 4798 ft 228 kts 66°
2026-05-07 19:14 50.07847 8.71265 5520 ft 233 kts 40°
2026-05-07 19:14 50.09298 8.72604 5901 ft 256 kts 24°
2026-05-07 19:14 50.10982 8.73715 6013 ft 267 kts 21°
2026-05-07 19:15 50.12710 8.74822 6064 ft 269 kts 21°
2026-05-07 19:15 50.14434 8.75947 6075 ft 268 kts 22°
2026-05-07 19:15 50.16147 8.77087 6074 ft 268 kts 22°
2026-05-07 19:15 50.17839 8.78222 6086 ft 268 kts 22°
2026-05-07 19:16 50.19555 8.79378 6415 ft 271 kts 22°
2026-05-07 19:16 50.21291 8.80554 7290 ft 273 kts 22°
2026-05-07 19:16 50.23045 8.81694 8393 ft 273 kts 19°
2026-05-07 19:16 50.24895 8.82423 9416 ft 276 kts
2026-05-07 19:17 50.26825 8.82454 10290 ft 281 kts 352°
2026-05-07 19:17 50.28783 8.81712 10848 ft 302 kts 338°
2026-05-07 19:17 50.30711 8.80040 11036 ft 333 kts 322°
2026-05-07 19:17 50.32349 8.77378 11064 ft 347 kts 304°
2026-05-07 19:18 50.33419 8.73985 11076 ft 350 kts 287°
2026-05-07 19:18 50.33777 8.70209 11322 ft 356 kts 270°
2026-05-07 19:18 50.33430 8.66352 12130 ft 359 kts 258°
2026-05-07 19:18 50.33059 8.62507 12731 ft 356 kts 268°
2026-05-07 19:19 50.33358 8.58681 13030 ft 356 kts 285°
2026-05-07 19:19 50.34110 8.54991 13073 ft 357 kts 289°
2026-05-07 19:19 50.34934 8.51307 13071 ft 359 kts 289°
2026-05-07 19:19 50.35755 8.47616 13076 ft 359 kts 289°
2026-05-07 19:20 50.36566 8.43919 13073 ft 359 kts 289°
2026-05-07 19:20 50.37280 8.40170 13274 ft 361 kts 282°
2026-05-07 19:20 50.37552 8.36241 14051 ft 364 kts 270°
2026-05-07 19:20 50.37270 8.32310 15070 ft 365 kts 258°
2026-05-07 19:21 50.36586 8.28461 15902 ft 369 kts 253°
2026-05-07 19:21 50.35807 8.24600 16737 ft 374 kts 253°
2026-05-07 19:21 50.35012 8.20702 17572 ft 378 kts 253°
2026-05-07 19:21 50.34212 8.16757 18418 ft 382 kts 253°
2026-05-07 19:22 50.33408 8.12775 19224 ft 387 kts 253°
2026-05-07 19:22 50.32593 8.08737 20007 ft 391 kts 253°
2026-05-07 19:22 50.31770 8.04656 20777 ft 396 kts 253°
2026-05-07 19:22 50.31219 8.01922 21291 ft 399 kts 253°
2026-05-07 19:23 50.30402 7.97738 22021 ft 404 kts 256°
2026-05-07 19:23 50.29934 7.93396 22733 ft 408 kts 267°
2026-05-07 19:23 50.30091 7.88951 23432 ft 412 kts 280°
2026-05-07 19:23 50.30892 7.84639 24058 ft 415 kts 292°
2026-05-07 19:24 50.32124 7.80531 24718 ft 420 kts 298°
2026-05-07 19:24 50.33635 7.76595 25380 ft 424 kts 302°
2026-05-07 19:24 50.35253 7.72710 26028 ft 428 kts 303°
2026-05-07 19:24 50.36942 7.68857 26671 ft 431 kts 304°
2026-05-07 19:25 50.38680 7.65007 27274 ft 436 kts 305°
2026-05-07 19:25 50.40454 7.61125 27841 ft 440 kts 305°
2026-05-07 19:25 50.42244 7.57211 28460 ft 442 kts 305°
2026-05-07 19:25 50.44041 7.53268 29007 ft 446 kts 305°
2026-05-07 19:26 50.45842 7.49299 29525 ft 449 kts 305°
2026-05-07 19:26 50.47658 7.45275 30045 ft 452 kts 305°
2026-05-07 19:26 50.49484 7.41225 30507 ft 456 kts 305°
2026-05-07 19:26 50.51318 7.37140 30966 ft 460 kts 304°
2026-05-07 19:27 50.53169 7.33011 31409 ft 463 kts 304°
2026-05-07 19:27 50.55029 7.28859 31831 ft 466 kts 304°
2026-05-07 19:27 50.56902 7.24665 32216 ft 470 kts 304°
2026-05-07 19:27 50.58759 7.20500 32564 ft 473 kts 304°
2026-05-07 19:28 50.60660 7.16232 32916 ft 476 kts 304°
2026-05-07 19:28 50.62556 7.11969 33335 ft 476 kts 304°
2026-05-07 19:28 50.64451 7.07704 33846 ft 475 kts 304°
2026-05-07 19:28 50.66366 7.03386 34319 ft 474 kts 304°
2026-05-07 19:29 50.68231 6.99171 34703 ft 475 kts 304°
2026-05-07 19:29 50.70117 6.94898 35081 ft 475 kts 304°
2026-05-07 19:29 50.72011 6.90606 35456 ft 476 kts 304°
2026-05-07 19:29 50.73902 6.86316 35826 ft 476 kts 303°
2026-05-07 19:30 50.75793 6.82019 36164 ft 477 kts 303°
2026-05-07 19:30 50.77684 6.77715 36486 ft 478 kts 303°
2026-05-07 19:30 50.79577 6.73394 36781 ft 479 kts 303°
2026-05-07 19:30 50.81468 6.69077 37149 ft 477 kts 303°
2026-05-07 19:31 50.83350 6.64772 37548 ft 475 kts 303°
2026-05-07 19:31 50.85224 6.60478 37916 ft 473 kts 303°
2026-05-07 19:31 50.87092 6.56187 38206 ft 473 kts 303°
2026-05-07 19:31 50.88961 6.51886 38444 ft 474 kts 302°
2026-05-07 19:32 50.90826 6.47584 38681 ft 475 kts 302°
2026-05-07 19:32 50.92697 6.43261 38902 ft 475 kts 302°
2026-05-07 19:32 50.94568 6.38938 39157 ft 476 kts 302°
2026-05-07 19:32 50.96439 6.34607 39374 ft 477 kts 302°
2026-05-07 19:33 50.98314 6.30255 39579 ft 477 kts 302°
2026-05-07 19:33 51.00182 6.25911 39758 ft 478 kts 302°
2026-05-07 19:33 51.02064 6.21534 39951 ft 479 kts 302°
2026-05-07 19:33 51.03943 6.17156 40054 ft 481 kts 302°
2026-05-07 19:34 51.07709 6.08357 40075 ft 481 kts 302°
2026-05-07 19:34 51.11465 5.99550 40076 ft 481 kts 302°
2026-05-07 19:35 51.15194 5.90777 40058 ft 482 kts 302°
2026-05-07 19:35 51.18673 5.81690 40077 ft 479 kts 292°
2026-05-07 19:36 51.21368 5.72035 40057 ft 479 kts 291°
2026-05-07 19:36 51.23958 5.62193 40076 ft 479 kts 291°
2026-05-07 19:37 51.26510 5.52381 40077 ft 479 kts 291°
2026-05-07 19:37 51.29065 5.42560 40057 ft 479 kts 291°
2026-05-07 19:38 51.31617 5.32741 40075 ft 479 kts 290°
2026-05-07 19:38 51.34164 5.22908 40077 ft 479 kts 290°
2026-05-07 19:39 51.36704 5.13058 40076 ft 478 kts 290°
2026-05-07 19:39 51.39237 5.03187 40062 ft 479 kts 290°
2026-05-07 19:40 51.41752 4.93346 40076 ft 478 kts 290°
2026-05-07 19:40 51.44262 4.83479 40076 ft 478 kts 290°
2026-05-07 19:41 51.46767 4.73587 40057 ft 478 kts 290°
2026-05-07 19:41 51.49255 4.63722 40075 ft 478 kts 290°
2026-05-07 19:42 51.51492 4.54816 40077 ft 478 kts 290°
2026-05-07 19:42 51.53971 4.44902 40065 ft 479 kts 290°
2026-05-07 19:43 51.56444 4.34969 40075 ft 479 kts 290°
2026-05-07 19:43 51.58907 4.25026 40077 ft 479 kts 290°
2026-05-07 19:44 51.61366 4.15063 40076 ft 479 kts 290°
2026-05-07 19:44 51.63814 4.05096 40057 ft 479 kts 290°
2026-05-07 19:45 51.66255 3.95109 40077 ft 479 kts 289°
2026-05-07 19:45 51.68675 3.85167 40076 ft 479 kts 289°
2026-05-07 19:46 51.71101 3.75152 40077 ft 479 kts 289°
2026-05-07 19:46 51.73516 3.65139 40067 ft 479 kts 289°
2026-05-07 19:47 51.75925 3.55106 40082 ft 479 kts 289°
2026-05-07 19:47 51.78319 3.45086 40082 ft 479 kts 289°
2026-05-07 19:48 51.80709 3.35038 40091 ft 479 kts 289°
2026-05-07 19:48 51.83081 3.24967 40092 ft 479 kts 288°
2026-05-07 19:49 51.84431 3.14517 40101 ft 475 kts 271°
2026-05-07 19:49 51.84134 3.03884 40100 ft 473 kts 263°
2026-05-07 19:50 51.83440 2.93302 40100 ft 474 kts 262°
2026-05-07 19:50 51.83066 2.88018 39888 ft 472 kts 262°
2026-05-07 19:50 51.82693 2.82743 39640 ft 473 kts 262°
2026-05-07 19:51 51.82326 2.77470 39391 ft 473 kts 262°
2026-05-07 19:51 51.81963 2.72186 39146 ft 472 kts 262°
2026-05-07 19:51 51.81602 2.66912 38893 ft 472 kts 262°
2026-05-07 19:51 51.81249 2.61639 38532 ft 473 kts 263°
2026-05-07 19:52 51.81271 2.56335 38038 ft 472 kts 277°
2026-05-07 19:52 51.82092 2.51244 37507 ft 469 kts 289°
2026-05-07 19:52 51.83304 2.46372 37004 ft 464 kts 291°
2026-05-07 19:52 51.84568 2.41612 36516 ft 458 kts 291°
2026-05-07 19:53 51.85828 2.36908 36035 ft 453 kts 291°
2026-05-07 19:53 51.87073 2.32260 35520 ft 449 kts 291°
2026-05-07 19:53 51.88311 2.27646 34970 ft 445 kts 291°
2026-05-07 19:53 51.89540 2.23063 34411 ft 442 kts 291°
2026-05-07 19:54 51.90759 2.18510 33904 ft 438 kts 291°
2026-05-07 19:54 51.91964 2.14007 33422 ft 434 kts 291°
2026-05-07 19:54 51.93096 2.09516 32916 ft 428 kts 286°
2026-05-07 19:54 51.93570 2.04817 32402 ft 420 kts 268°
2026-05-07 19:55 51.93157 2.00245 31891 ft 414 kts 251°
2026-05-07 19:55 51.91880 1.96056 31341 ft 410 kts 234°
2026-05-07 19:55 51.89897 1.92768 30821 ft 407 kts 218°
2026-05-07 19:55 51.87818 1.89688 30193 ft 405 kts 232°
2026-05-07 19:56 51.86154 1.86046 29624 ft 402 kts 235°
2026-05-07 19:56 51.84548 1.82361 29080 ft 399 kts 235°
2026-05-07 19:56 51.82947 1.78791 28455 ft 396 kts 234°
2026-05-07 19:56 51.81309 1.75223 27928 ft 394 kts 233°
2026-05-07 19:57 51.79647 1.71645 27448 ft 390 kts 233°
2026-05-07 19:57 51.78025 1.68176 27038 ft 384 kts 233°
2026-05-07 19:57 51.76479 1.64802 26353 ft 374 kts 236°
2026-05-07 19:57 51.75231 1.61102 25568 ft 378 kts 248°
2026-05-07 19:58 51.74518 1.57046 25060 ft 375 kts 260°
2026-05-07 19:58 51.74190 1.52898 24573 ft 372 kts 263°
2026-05-07 19:58 51.73933 1.48753 24088 ft 369 kts 263°
2026-05-07 19:58 51.73678 1.44639 23582 ft 367 kts 263°
2026-05-07 19:59 51.73420 1.40568 23096 ft 364 kts 263°
2026-05-07 19:59 51.73160 1.36524 22574 ft 362 kts 263°
2026-05-07 19:59 51.72898 1.32502 22064 ft 360 kts 263°
2026-05-07 19:59 51.72635 1.28501 21556 ft 357 kts 263°
2026-05-07 20:00 51.72375 1.24565 20911 ft 348 kts 263°
2026-05-07 20:00 51.72116 1.20669 20088 ft 351 kts 263°
2026-05-07 20:00 51.71855 1.16771 19609 ft 348 kts 263°
2026-05-07 20:00 51.71596 1.12908 19124 ft 345 kts 263°
2026-05-07 20:01 51.71337 1.09073 18637 ft 342 kts 263°
2026-05-07 20:01 51.71079 1.05274 18122 ft 340 kts 263°
2026-05-07 20:01 51.70821 1.01490 17699 ft 336 kts 263°
2026-05-07 20:01 51.70571 0.97835 17396 ft 319 kts 263°
2026-05-07 20:02 51.70332 0.94338 16753 ft 311 kts 263°
2026-05-07 20:02 51.70097 0.90889 15954 ft 308 kts 262°
2026-05-07 20:02 51.69859 0.87492 15203 ft 304 kts 262°
2026-05-07 20:02 51.69620 0.84092 14706 ft 304 kts 262°
2026-05-07 20:03 51.69384 0.80724 14303 ft 301 kts 262°
2026-05-07 20:03 51.69148 0.77380 13847 ft 300 kts 262°
2026-05-07 20:03 51.68914 0.74053 13404 ft 298 kts 262°
2026-05-07 20:03 51.68679 0.70753 12973 ft 296 kts 262°
2026-05-07 20:04 51.68445 0.67459 12510 ft 295 kts 262°
2026-05-07 20:04 51.68214 0.64182 12057 ft 294 kts 262°
2026-05-07 20:04 51.67978 0.60921 11608 ft 292 kts 262°
2026-05-07 20:04 51.67743 0.57688 11176 ft 290 kts 262°
2026-05-07 20:05 51.67509 0.54472 10738 ft 289 kts 262°
2026-05-07 20:05 51.67276 0.51261 10287 ft 287 kts 262°
2026-05-07 20:05 51.67044 0.48080 9854 ft 285 kts 262°
2026-05-07 20:05 51.66813 0.44913 9420 ft 283 kts 262°
2026-05-07 20:06 51.66583 0.41782 8985 ft 281 kts 263°
2026-05-07 20:06 51.66355 0.38698 8543 ft 280 kts 263°
2026-05-07 20:06 51.66122 0.35564 8176 ft 277 kts 262°
2026-05-07 20:06 51.65895 0.32530 8081 ft 277 kts 262°
2026-05-07 20:07 51.65666 0.29406 8070 ft 278 kts 263°
2026-05-07 20:07 51.65446 0.26345 8072 ft 278 kts 263°
2026-05-07 20:07 51.65225 0.23255 8071 ft 277 kts 263°
2026-05-07 20:07 51.65003 0.20171 8072 ft 278 kts 263°
2026-05-07 20:08 51.64799 0.17093 8070 ft 278 kts 265°
2026-05-07 20:08 51.64664 0.14011 8070 ft 278 kts 266°
2026-05-07 20:08 51.64537 0.10843 8073 ft 278 kts 266°
2026-05-07 20:08 51.64415 0.07741 8075 ft 278 kts 266°
2026-05-07 20:09 51.64294 0.04677 8075 ft 278 kts 266°
2026-05-07 20:09 51.64169 0.01536 8072 ft 278 kts 266°
2026-05-07 20:09 51.64045 -0.01565 8076 ft 277 kts 266°
2026-05-07 20:10 51.63841 -0.06671 7703 ft 272 kts 266°
2026-05-07 20:10 51.63719 -0.09715 7251 ft 272 kts 265°
2026-05-07 20:10 51.63561 -0.13752 7076 ft 274 kts 266°
2026-05-07 20:10 51.63442 -0.16809 7071 ft 273 kts 265°
2026-05-07 20:11 51.63322 -0.19854 7072 ft 273 kts 265°
2026-05-07 20:11 51.63202 -0.22901 7072 ft 273 kts 266°
2026-05-07 20:11 51.63082 -0.25955 7073 ft 273 kts 266°
2026-05-07 20:11 51.63000 -0.28014 7073 ft 273 kts 266°
2026-05-07 20:12 51.62879 -0.31058 7073 ft 273 kts 266°
2026-05-07 20:12 51.62758 -0.34068 7073 ft 261 kts 266°
2026-05-07 20:12 51.62647 -0.36878 7081 ft 244 kts 265°
2026-05-07 20:12 51.62541 -0.39572 7079 ft 240 kts 265°
2026-05-07 20:13 51.62435 -0.42248 7074 ft 239 kts 265°
2026-05-07 20:13 51.62329 -0.44922 7073 ft 240 kts 266°
2026-05-07 20:13 51.62223 -0.47601 7073 ft 240 kts 265°
2026-05-07 20:13 51.62117 -0.50285 7072 ft 240 kts 266°
2026-05-07 20:14 51.62009 -0.52968 7072 ft 240 kts 265°
2026-05-07 20:14 51.61902 -0.55658 7073 ft 240 kts 265°
2026-05-07 20:14 51.61795 -0.58327 6882 ft 237 kts 265°
2026-05-07 20:14 51.61596 -0.60950 6492 ft 237 kts 256°
2026-05-07 20:15 51.61138 -0.63451 6098 ft 237 kts 251°
2026-05-07 20:15 51.60470 -0.65896 5725 ft 236 kts 242°
2026-05-07 20:15 51.59700 -0.68219 5367 ft 235 kts 241°
2026-05-07 20:15 51.58922 -0.70523 5011 ft 234 kts 240°
2026-05-07 20:16 51.58147 -0.72828 4649 ft 234 kts 240°
2026-05-07 20:16 51.57375 -0.75134 4298 ft 234 kts 240°
2026-05-07 20:16 51.56577 -0.77389 4032 ft 231 kts 233°
2026-05-07 20:16 51.55334 -0.78973 3987 ft 227 kts 200°
2026-05-07 20:17 51.53871 -0.79449 4000 ft 205 kts 183°
2026-05-07 20:17 51.52530 -0.79560 4022 ft 188 kts 181°
2026-05-07 20:17 51.51220 -0.79627 3995 ft 186 kts 180°
2026-05-07 20:17 51.50004 -0.79178 3804 ft 182 kts 149°
2026-05-07 20:18 51.49122 -0.77724 3469 ft 180 kts 124°
2026-05-07 20:18 51.48465 -0.76040 3147 ft 180 kts 121°
2026-05-07 20:18 51.47917 -0.74321 3001 ft 165 kts 108°
2026-05-07 20:18 51.47732 -0.72540 2979 ft 161 kts 95°
2026-05-07 20:19 51.47707 -0.70752 2804 ft 160 kts 92°
2026-05-07 20:19 51.47686 -0.68971 2587 ft 160 kts 93°
2026-05-07 20:19 51.47683 -0.67189 2370 ft 159 kts 91°
2026-05-07 20:19 51.47692 -0.65416 2152 ft 158 kts 91°
2026-05-07 20:20 51.47696 -0.63658 1942 ft 158 kts 91°
2026-05-07 20:20 51.47701 -0.61896 1730 ft 158 kts 91°
2026-05-07 20:20 51.47708 -0.60131 1520 ft 158 kts 91°
2026-05-07 20:20 51.47713 -0.58424 1312 ft 147 kts 91°
2026-05-07 20:21 51.47718 -0.56843 1116 ft 136 kts 91°
2026-05-07 20:21 51.47722 -0.55356 941 ft 132 kts 92°
2026-05-07 20:21 51.47725 -0.53891 764 ft 132 kts 91°
2026-05-07 20:21 51.47734 -0.52417 601 ft 132 kts 91°
2026-05-07 20:22 51.47741 -0.50941 412 ft 133 kts 91°
2026-05-07 20:22 51.47750 -0.49474 222 ft 130 kts 91°
2026-05-07 20:22 51.47757 -0.48011 106 ft 132 kts 91°
2026-05-07 20:22 51.47752 -0.46712 95 ft 93 kts 90°
2026-05-07 20:23 51.47754 -0.45862 94 ft 58 kts 90°
2026-05-07 20:23 51.47721 -0.45499 91 ft 14 kts 143°
2026-05-07 20:23 51.47660 -0.45469 92 ft 5 kts 174°
2026-05-07 20:23 51.47626 -0.45467 94 ft 4 kts 179°
2026-05-07 20:24 51.47575 -0.45468 94 ft 10 kts 184°
2026-05-07 20:24 51.47512 -0.45535 95 ft 12 kts 250°
2026-05-07 20:24 51.47509 -0.45694 94 ft 16 kts 272°
2026-05-07 20:24 51.47519 -0.45892 94 ft 19 kts 271°
2026-05-07 20:25 51.47518 -0.46102 97 ft 18 kts 269°
2026-05-07 20:25 51.47517 -0.46318 93 ft 21 kts 270°
2026-05-07 20:25 51.47517 -0.46519 92 ft 17 kts 270°
2026-05-07 20:25 51.47516 -0.46665 92 ft 13 kts 269°
2026-05-07 20:26 51.47456 -0.46748 92 ft 13 kts 180°
2026-05-07 20:26 51.47368 -0.46732 92 ft 11 kts 172°
2026-05-07 20:26 51.47290 -0.46717 95 ft 11 kts 174°
2026-05-07 20:26 51.47241 -0.46623 93 ft 13 kts 94°
2026-05-07 20:27 51.47240 -0.46483 93 ft 11 kts 91°
2026-05-07 20:27 51.47196 -0.46379 94 ft 9 kts 143°
2026-05-07 20:27 51.47151 -0.46331 92 ft 7 kts 156°
2026-05-07 20:27 51.47124 -0.46354 92 ft 5 kts 230°
2026-05-07 20:28 51.47106 -0.46393 96 ft 3 kts 234°
2026-05-07 20:28 51.47098 -0.46411 93 ft 1 kts 235°
2026-05-07 20:28 51.47094 -0.46421 94 ft 1 kts 235°
2026-05-07 20:28 51.47094 -0.46422 92 ft 0 kts 235°